�N����,�����b,�ŏ������i�x�j,���ϕ����i�x�j,�ő啗���i�x�j,�ŏ�����(m/s),���ϕ���(m/s),�ő啗��(m/s),�C��(���j,���x�i���j,�C��(hPa),�~�J��(mm),�~�J����(�b�j,�~�J���x(mm/h),�ő�~�J���x(mm/h),�~�Ђ傤��(hit/���u),�~�Ђ傤����(�b�j,�~�Ђ傤���x(hit/���uh),�ő�~�Ђ傤���x(hit/���uh),�q�[�^���x(���j,�q�[�^�[�d���iV),�d���d���iV),�Q�Ɠd���iV)
2013/02/01,00:00:01,114,117,121,5.7,6.0,6.4,19.1,61.6,1017.6,0.00,0,0.0,////,0.0,0,0.0,////,17.9,0.0,12.3,3.513
2013/02/01,00:10:01,130,141,160,2.9,4.1,4.7,19.0,61.4,1017.7,0.00,0,0.0,////,0.0,0,0.0,////,17.7,0.0,12.3,3.511
2013/02/01,00:20:01,109,110,111,5.7,6.6,7.4,19.0,60.7,1017.7,0.00,0,0.0,////,0.0,0,0.0,////,17.4,0.0,12.3,3.513
2013/02/01,00:30:01,122,133,151,6.8,7.8,8.4,19.1,60.1,1017.6,0.00,0,0.0,////,0.0,0,0.0,////,17.9,0.0,12.3,3.513
2013/02/01,00:40:01,130,130,131,5.5,6.1,7.0,19.0,57.8,1017.7,0.00,0,0.0,////,0.0,0,0.0,////,17.9,0.0,12.3,3.513
2013/02/01,00:50:01,143,153,161,2.8,3.0,3.1,19.0,58.9,1017.7,0.00,0,0.0,////,0.0,0,0.0,////,17.5,0.0,12.3,3.513
2013/02/01,01:00:01,108,117,127,2.9,3.2,3.6,18.9,60.3,1017.7,0.00,0,0.0,////,0.0,0,0.0,////,17.5,0.0,12.2,3.513
2013/02/01,01:10:01,143,145,146,4.8,5.4,5.9,18.8,60.2,1017.7,0.00,0,0.0,////,0.0,0,0.0,////,17.7,0.0,12.3,3.513
2013/02/01,01:20:01,127,138,146,2.1,2.5,3.1,18.9,59.7,1017.6,0.00,0,0.0,////,0.0,0,0.0,////,17.5,0.0,12.3,3.513
2013/02/01,01:30:01,133,136,140,5.4,6.1,7.3,18.8,59.1,1017.5,0.00,0,0.0,////,0.0,0,0.0,////,17.5,0.0,12.3,3.513
2013/02/01,01:40:01,113,117,121,4.5,4.7,4.8,18.7,60.5,1017.5,0.00,0,0.0,////,0.0,0,0.0,////,17.5,0.0,12.3,3.515
2013/02/01,01:50:01,121,127,132,5.7,5.8,6.1,18.8,58.8,1017.5,0.00,0,0.0,////,0.0,0,0.0,////,17.5,0.0,12.3,3.513
2013/02/01,02:00:01,120,127,132,3.5,3.7,3.8,18.7,58.9,1017.6,0.00,0,0.0,////,0.0,0,0.0,////,17.9,0.0,12.3,3.513
2013/02/01,02:10:01,127,143,158,5.6,6.6,7.4,18.7,58.9,1017.6,0.00,0,0.0,////,0.0,0,0.0,////,17.4,0.0,12.2,3.511
2013/02/01,02:20:01,126,130,133,5.4,5.6,5.7,18.8,58.4,1017.5,0.00,0,0.0,////,0.0,0,0.0,////,17.7,0.0,12.3,3.513
2013/02/01,02:30:01,114,119,121,5.3,5.6,5.8,18.7,60.6,1017.4,0.00,0,0.0,////,0.0,0,0.0,////,17.4,0.0,12.3,3.513
2013/02/01,02:40:01,125,145,158,4.7,5.2,5.9,18.7,59.8,1017.3,0.00,0,0.0,////,0.0,0,0.0,////,17.4,0.0,12.3,3.511
2013/02/01,02:50:01,133,148,163,3.2,3.9,4.5,18.6,59.8,1017.1,0.00,0,0.0,////,0.0,0,0.0,////,17.2,0.0,12.3,3.513
2013/02/01,03:00:01,110,113,117,4.4,4.5,4.6,18.7,59.8,1017.0,0.00,0,0.0,////,0.0,0,0.0,////,17.4,0.0,12.3,3.513
2013/02/01,03:10:01,118,120,121,4.7,4.9,5.3,18.6,59.2,1016.9,0.00,0,0.0,////,0.0,0,0.0,////,17.2,0.0,12.3,3.513
2013/02/01,03:20:01,146,165,178,2.2,2.8,3.3,18.7,57.7,1017.0,0.00,0,0.0,////,0.0,0,0.0,////,17.4,0.0,12.3,3.515
2013/02/01,03:30:01,106,112,120,3.2,3.6,3.9,18.6,58.3,1017.0,0.00,0,0.0,////,0.0,0,0.0,////,17.4,0.0,12.3,3.513
2013/02/01,03:40:01,114,118,123,3.7,4.2,4.8,18.6,59.2,1016.7,0.00,0,0.0,////,0.0,0,0.0,////,17.2,0.0,12.3,3.511
2013/02/01,03:50:01,133,133,133,4.8,5.6,6.2,18.5,60.3,1016.7,0.00,0,0.0,////,0.0,0,0.0,////,17.2,0.0,12.3,3.513
2013/02/01,04:00:01,126,132,137,3.0,3.2,3.5,18.6,57.9,1016.6,0.00,0,0.0,////,0.0,0,0.0,////,17.2,0.0,12.3,3.511
2013/02/01,04:10:01,109,113,118,5.4,5.9,6.2,18.7,56.8,1016.4,0.00,0,0.0,////,0.0,0,0.0,////,17.5,0.0,12.2,3.513
2013/02/01,04:20:01,139,143,148,4.1,4.5,5.2,18.7,56.3,1016.4,0.00,0,0.0,////,0.0,0,0.0,////,17.4,0.0,12.3,3.513
2013/02/01,04:30:01,103,121,134,3.0,3.1,3.1,18.7,57.4,1016.1,0.00,0,0.0,////,0.0,0,0.0,////,17.5,0.0,12.3,3.513
2013/02/01,04:40:01,133,139,147,4.7,5.6,6.7,18.7,57.6,1016.1,0.00,0,0.0,////,0.0,0,0.0,////,17.5,0.0,12.3,3.514
2013/02/01,04:50:01,123,125,129,2.6,2.8,3.1,18.6,57.8,1016.1,0.00,0,0.0,////,0.0,0,0.0,////,17.5,0.0,12.3,3.513
2013/02/01,05:00:01,120,143,168,2.2,3.2,4.6,18.7,59.4,1016.1,0.00,0,0.0,////,0.0,0,0.0,////,17.4,0.0,12.3,3.513
2013/02/01,05:10:01,138,143,149,5.7,6.5,7.2,18.9,58.7,1016.0,0.00,0,0.0,////,0.0,0,0.0,////,17.5,0.0,12.3,3.511
2013/02/01,05:20:01,143,167,185,1.8,2.6,3.1,18.8,57.7,1016.3,0.00,0,0.0,////,0.0,0,0.0,////,17.5,0.0,12.3,3.513
2013/02/01,05:30:01,150,157,165,6.0,6.4,6.9,19.0,56.1,1016.3,0.00,0,0.0,////,0.0,0,0.0,////,17.7,0.0,12.4,3.513
2013/02/01,05:40:01,153,160,163,3.5,4.1,4.5,19.1,54.8,1016.2,0.00,0,0.0,////,0.0,0,0.0,////,17.7,0.0,12.3,3.511
2013/02/01,05:50:01,133,144,155,2.9,3.5,4.4,19.0,56.7,1016.3,0.00,0,0.0,////,0.0,0,0.0,////,17.7,0.0,12.3,3.516
2013/02/01,06:00:01,172,179,184,6.8,7.7,8.5,18.9,57.1,1016.2,0.00,0,0.0,////,0.0,0,0.0,////,17.7,0.0,12.3,3.513
2013/02/01,06:10:01,125,130,137,8.2,8.3,8.6,19.0,56.3,1016.3,0.00,0,0.0,////,0.0,0,0.0,////,17.7,0.0,12.3,3.513
2013/02/01,06:20:01,161,164,167,5.9,6.5,7.5,18.9,57.0,1016.5,0.00,0,0.0,////,0.0,0,0.0,////,17.5,0.0,12.3,3.511
2013/02/01,06:30:01,123,125,129,4.3,4.9,5.3,18.9,56.3,1016.6,0.00,0,0.0,////,0.0,0,0.0,////,17.5,0.0,12.3,3.513
2013/02/01,06:40:01,121,125,127,5.1,5.5,6.0,18.9,57.5,1016.6,0.00,0,0.0,////,0.0,0,0.0,////,17.5,0.0,12.3,3.513
2013/02/01,06:50:01,154,157,159,5.4,5.6,5.9,18.9,58.0,1016.5,0.00,0,0.0,////,0.0,0,0.0,////,17.7,0.0,12.3,3.513
2013/02/01,07:00:01,120,126,131,5.2,5.4,5.5,18.9,57.5,1016.8,0.00,0,0.0,////,0.0,0,0.0,////,17.5,0.0,12.3,3.513
2013/02/01,07:10:01,131,137,142,4.1,4.5,4.9,18.9,56.6,1016.9,0.00,0,0.0,////,0.0,0,0.0,////,17.5,0.0,12.3,3.513
2013/02/01,07:20:01,130,137,146,3.7,4.2,4.8,18.9,56.2,1017.0,0.00,0,0.0,////,0.0,0,0.0,////,17.5,0.0,12.3,3.513
2013/02/01,07:30:01,132,144,155,5.9,6.6,7.1,18.9,56.3,1017.2,0.00,0,0.0,////,0.0,0,0.0,////,17.9,0.0,12.3,3.514
2013/02/01,07:40:01,132,142,150,2.1,2.3,2.6,19.1,55.5,1017.2,0.00,0,0.0,////,0.0,0,0.0,////,18.1,0.0,12.3,3.513
2013/02/01,07:50:01,113,115,118,5.0,5.9,6.5,19.2,56.0,1017.4,0.00,0,0.0,////,0.0,0,0.0,////,18.6,0.0,12.3,3.510
2013/02/01,08:00:01,140,148,158,1.7,1.9,2.0,19.3,56.3,1017.5,0.00,0,0.0,////,0.0,0,0.0,////,18.9,0.0,12.3,3.511
2013/02/01,08:10:01,153,159,169,3.1,3.2,3.5,19.3,57.2,1017.6,0.00,0,0.0,////,0.0,0,0.0,////,18.6,0.0,12.3,3.513
2013/02/01,08:20:01,158,165,177,4.0,4.2,4.5,19.3,57.9,1017.6,0.00,0,0.0,////,0.0,0,0.0,////,18.4,0.0,12.3,3.513
2013/02/01,08:30:01,148,150,154,1.3,1.6,2.0,19.3,58.5,1017.6,0.00,0,0.0,////,0.0,0,0.0,////,18.6,0.0,12.3,3.513
2013/02/01,08:40:01,137,141,147,0.9,1.5,2.2,19.9,57.9,1017.7,0.00,0,0.0,////,0.0,0,0.0,////,20.0,0.0,12.3,3.513
2013/02/01,08:50:01,177,186,200,1.0,1.2,1.4,20.0,52.8,1017.9,0.00,0,0.0,////,0.0,0,0.0,////,20.6,0.0,12.3,3.511
2013/02/01,09:00:01,193,197,200,2.8,3.0,3.2,20.6,50.3,1018.1,0.00,0,0.0,////,0.0,0,0.0,////,21.7,0.0,12.3,3.511
2013/02/01,09:10:01,162,166,170,6.0,6.5,6.9,20.5,50.2,1018.1,0.00,0,0.0,////,0.0,0,0.0,////,21.2,0.0,12.3,3.514
2013/02/01,09:20:01,153,170,190,1.8,2.0,2.2,20.5,53.2,1018.1,0.00,0,0.0,////,0.0,0,0.0,////,21.0,0.0,12.3,3.511
2013/02/01,09:30:01,169,174,179,1.0,1.3,1.6,20.7,52.8,1018.0,0.00,0,0.0,////,0.0,0,0.0,////,21.5,0.0,12.3,3.513
2013/02/01,09:40:01,193,198,206,2.6,3.3,4.0,20.7,49.9,1018.0,0.00,0,0.0,////,0.0,0,0.0,////,21.5,0.0,12.4,3.511
2013/02/01,09:50:01,182,190,200,2.6,3.4,4.0,20.9,50.6,1018.1,0.00,0,0.0,////,0.0,0,0.0,////,21.5,0.0,12.3,3.513
2013/02/01,10:00:01,170,176,185,2.7,3.1,3.4,21.3,50.7,1018.2,0.00,0,0.0,////,0.0,0,0.0,////,22.9,0.0,12.3,3.513
2013/02/01,10:10:01,184,197,207,1.8,2.0,2.4,21.7,51.2,1018.2,0.00,0,0.0,////,0.0,0,0.0,////,23.4,0.0,12.3,3.511
2013/02/01,10:20:01,122,144,161,2.3,2.5,2.7,21.4,53.0,1018.3,0.00,0,0.0,////,0.0,0,0.0,////,22.7,0.0,12.3,3.511
2013/02/01,10:30:01,076,129,214,1.3,1.5,1.6,21.6,52.7,1018.3,0.00,0,0.0,////,0.0,0,0.0,////,23.1,0.0,12.3,3.513
2013/02/01,10:40:01,163,167,170,5.5,5.8,6.1,21.8,52.3,1018.2,0.00,0,0.0,////,0.0,0,0.0,////,23.2,0.0,12.3,3.511
2013/02/01,10:50:01,198,201,204,2.7,3.7,5.1,21.8,52.9,1018.3,0.00,0,0.0,////,0.0,0,0.0,////,23.1,0.0,12.3,3.513
2013/02/01,11:00:01,180,198,223,0.6,0.9,1.2,22.0,52.3,1018.2,0.00,0,0.0,////,0.0,0,0.0,////,23.6,0.0,12.3,3.513
2013/02/01,11:10:01,171,175,181,4.5,5.1,5.8,22.3,51.6,1018.1,0.00,0,0.0,////,0.0,0,0.0,////,23.9,0.0,12.3,3.513
2013/02/01,11:20:01,164,165,165,4.5,5.3,6.1,22.1,51.8,1018.0,0.00,0,0.0,////,0.0,0,0.0,////,23.6,0.0,12.3,3.513
2013/02/01,11:30:01,155,176,198,2.5,2.8,3.3,22.4,52.0,1017.9,0.00,0,0.0,////,0.0,0,0.0,////,23.9,0.0,12.3,3.514
2013/02/01,11:40:01,144,153,162,4.6,4.9,5.1,22.5,52.9,1017.8,0.00,0,0.0,////,0.0,0,0.0,////,24.4,0.0,12.3,3.513
2013/02/01,11:50:01,195,197,198,5.7,6.4,7.2,22.9,52.6,1017.6,0.00,0,0.0,////,0.0,0,0.0,////,25.1,0.0,12.3,3.513
2013/02/01,12:00:01,145,171,186,2.6,3.4,3.8,22.6,52.6,1017.4,0.00,0,0.0,////,0.0,0,0.0,////,24.8,0.0,12.3,3.514
2013/02/01,12:10:01,149,150,151,2.6,2.7,2.9,22.7,54.0,1017.2,0.00,0,0.0,////,0.0,0,0.0,////,24.4,0.0,12.3,3.513
2013/02/01,12:20:01,146,150,155,5.1,5.3,5.6,22.8,53.6,1016.8,0.00,0,0.0,////,0.0,0,0.0,////,24.4,0.0,12.3,3.511
2013/02/01,12:30:01,125,130,134,2.1,2.3,2.5,22.6,55.1,1016.5,0.00,0,0.0,////,0.0,0,0.0,////,24.1,0.0,12.3,3.511
2013/02/01,12:40:01,160,168,179,2.0,3.2,4.5,23.0,53.4,1016.3,0.00,0,0.0,////,0.0,0,0.0,////,25.5,0.0,12.3,3.513
2013/02/01,12:50:01,160,176,190,4.3,4.6,5.2,22.9,53.5,1015.8,0.00,0,0.0,////,0.0,0,0.0,////,25.1,0.0,12.3,3.511
2013/02/01,13:00:01,170,182,195,4.3,4.8,5.1,22.7,53.1,1015.8,0.00,0,0.0,////,0.0,0,0.0,////,25.1,0.0,12.3,3.513
2013/02/01,13:10:01,200,201,202,6.3,7.0,7.7,22.8,53.7,1015.9,0.00,0,0.0,////,0.0,0,0.0,////,25.1,0.0,12.3,3.511
2013/02/01,13:20:01,170,174,179,1.8,1.9,2.1,22.5,55.0,1015.9,0.00,0,0.0,////,0.0,0,0.0,////,24.1,0.0,12.3,3.514
2013/02/01,13:30:01,207,217,224,1.6,1.9,2.1,23.0,54.0,1015.9,0.00,0,0.0,////,0.0,0,0.0,////,25.0,0.0,12.3,3.511
2013/02/01,13:40:01,158,167,173,3.9,4.4,4.7,22.7,56.4,1015.7,0.00,0,0.0,////,0.0,0,0.0,////,24.3,0.0,12.3,3.513
2013/02/01,13:50:01,144,160,187,1.2,1.8,2.9,22.8,55.9,1015.6,0.00,0,0.0,////,0.0,0,0.0,////,24.3,0.0,12.3,3.511
2013/02/01,14:00:01,193,226,254,0.8,1.1,1.4,22.7,54.5,1015.5,0.00,0,0.0,////,0.0,0,0.0,////,24.6,0.0,12.3,3.513
2013/02/01,14:10:01,117,131,145,0.9,1.4,1.8,22.9,49.6,1015.2,0.00,0,0.0,////,0.0,0,0.0,////,24.8,0.0,12.3,3.511
2013/02/01,14:20:01,159,165,176,5.4,5.5,5.7,22.9,52.8,1015.1,0.00,0,0.0,////,0.0,0,0.0,////,24.4,0.0,12.3,3.511
2013/02/01,14:30:01,143,153,159,2.4,2.7,3.1,22.7,53.3,1015.1,0.00,0,0.0,////,0.0,0,0.0,////,24.3,0.0,12.3,3.513
2013/02/01,14:40:01,204,205,205,4.5,4.8,5.4,22.9,52.5,1015.0,0.00,0,0.0,////,0.0,0,0.0,////,24.4,0.0,12.3,3.514
2013/02/01,14:50:01,161,175,184,3.8,4.3,4.9,23.0,50.9,1014.9,0.00,0,0.0,////,0.0,0,0.0,////,24.4,0.0,12.3,3.513
2013/02/01,15:00:01,185,192,197,2.2,2.4,2.7,22.7,52.9,1014.8,0.00,0,0.0,////,0.0,0,0.0,////,24.3,0.0,12.3,3.508
2013/02/01,15:10:01,173,177,184,3.7,4.9,5.8,22.9,52.6,1014.9,0.00,0,0.0,////,0.0,0,0.0,////,24.4,0.0,12.3,3.513
2013/02/01,15:20:01,147,155,160,0.8,1.2,1.6,22.8,53.0,1014.9,0.00,0,0.0,////,0.0,0,0.0,////,24.3,0.0,12.3,3.513
2013/02/01,15:30:01,163,170,176,4.1,4.2,4.4,22.7,52.4,1014.8,0.00,0,0.0,////,0.0,0,0.0,////,24.3,0.0,12.3,3.511
2013/02/01,15:40:01,185,188,194,5.6,6.0,6.8,22.3,53.9,1014.8,0.00,0,0.0,////,0.0,0,0.0,////,23.6,0.0,12.3,3.513
2013/02/01,15:50:01,140,144,150,3.5,4.0,4.3,22.5,53.4,1014.8,0.00,0,0.0,////,0.0,0,0.0,////,23.7,0.0,12.3,3.513
2013/02/01,16:00:01,180,188,192,4.4,5.5,6.2,22.3,54.3,1014.8,0.00,0,0.0,////,0.0,0,0.0,////,23.2,0.0,12.3,3.511
2013/02/01,16:10:01,190,197,202,5.4,6.4,7.3,22.3,54.8,1014.8,0.00,0,0.0,////,0.0,0,0.0,////,23.4,0.0,12.3,3.511
2013/02/01,16:20:01,178,188,196,4.5,5.2,6.3,22.1,57.1,1014.8,0.00,0,0.0,////,0.0,0,0.0,////,22.9,0.0,12.3,3.511
2013/02/01,16:30:01,175,182,187,3.5,3.9,4.2,21.8,58.4,1014.9,0.00,0,0.0,////,0.0,0,0.0,////,22.4,0.0,12.3,3.513
2013/02/01,16:40:01,166,171,175,1.9,2.1,2.3,21.7,59.2,1015.0,0.00,0,0.0,////,0.0,0,0.0,////,22.2,0.0,12.3,3.511
2013/02/01,16:50:01,192,203,215,2.1,2.3,2.4,21.7,59.4,1015.1,0.00,0,0.0,////,0.0,0,0.0,////,22.0,0.0,12.3,3.513
2013/02/01,17:00:01,169,189,206,2.1,2.4,2.8,21.3,61.1,1015.0,0.00,0,0.0,////,0.0,0,0.0,////,21.3,0.0,12.3,3.513
2013/02/01,17:10:01,163,168,171,3.3,4.0,4.4,21.3,61.3,1015.1,0.00,0,0.0,////,0.0,0,0.0,////,21.8,0.0,12.3,3.513
2013/02/01,17:20:01,191,203,213,1.7,1.9,2.1,21.2,62.9,1015.3,0.00,0,0.0,////,0.0,0,0.0,////,21.2,0.0,12.3,3.513
2013/02/01,17:30:01,122,135,146,3.3,3.6,3.8,20.9,64.6,1015.5,0.00,0,0.0,////,0.0,0,0.0,////,20.5,0.0,12.3,3.513
2013/02/01,17:40:01,127,135,144,4.9,5.6,6.2,20.7,66.3,1015.5,0.00,0,0.0,////,0.0,0,0.0,////,19.4,0.0,12.3,3.513
2013/02/01,17:50:01,151,166,177,3.2,3.7,4.4,20.6,66.8,1015.7,0.00,0,0.0,////,0.0,0,0.0,////,19.6,0.0,12.3,3.511
2013/02/01,18:00:01,191,195,203,3.0,3.2,3.4,20.6,67.0,1015.9,0.00,0,0.0,////,0.0,0,0.0,////,19.8,0.0,12.3,3.511
2013/02/01,18:10:01,149,157,164,1.9,2.0,2.1,20.5,67.3,1015.9,0.00,0,0.0,////,0.0,0,0.0,////,19.4,0.0,12.3,3.513
2013/02/01,18:20:01,157,160,163,1.7,1.9,2.2,20.4,67.7,1015.9,0.00,0,0.0,////,0.0,0,0.0,////,19.3,0.0,12.3,3.514
2013/02/01,18:30:01,115,127,136,3.2,3.5,3.8,20.4,68.6,1015.8,0.00,0,0.0,////,0.0,0,0.0,////,19.1,0.0,12.3,3.513
2013/02/01,18:40:01,148,153,159,3.4,3.7,4.0,20.3,68.7,1015.8,0.00,0,0.0,////,0.0,0,0.0,////,19.1,0.0,12.3,3.513
2013/02/01,18:50:01,131,151,169,1.6,2.0,2.8,20.4,69.3,1016.0,0.00,0,0.0,////,0.0,0,0.0,////,19.3,0.0,12.3,3.513
2013/02/01,19:00:01,151,160,179,1.8,2.2,2.6,20.5,70.3,1016.0,0.00,0,0.0,////,0.0,0,0.0,////,19.4,0.0,12.3,3.513
2013/02/01,19:10:01,122,131,144,2.3,2.4,2.5,20.5,71.0,1016.2,0.00,0,0.0,////,0.0,0,0.0,////,19.3,0.0,12.3,3.511
2013/02/01,19:20:01,137,145,153,2.6,2.9,3.2,20.5,71.2,1016.2,0.00,0,0.0,////,0.0,0,0.0,////,19.4,0.0,12.3,3.513
2013/02/01,19:30:01,125,146,165,3.4,3.7,4.2,20.6,70.5,1016.2,0.00,0,0.0,////,0.0,0,0.0,////,19.6,0.0,12.3,3.511
2013/02/01,19:40:01,136,139,144,3.5,3.7,4.1,20.6,71.2,1016.4,0.00,0,0.0,////,0.0,0,0.0,////,19.4,0.0,12.3,3.513
2013/02/01,19:50:01,139,152,161,2.5,2.9,3.6,20.5,71.4,1016.3,0.00,0,0.0,////,0.0,0,0.0,////,19.3,0.0,12.3,3.511
2013/02/01,20:00:01,153,154,155,3.8,4.2,4.4,20.5,71.0,1016.3,0.00,0,0.0,////,0.0,0,0.0,////,19.3,0.0,12.3,3.511
2013/02/01,20:10:01,152,156,161,4.7,4.9,5.1,20.4,71.2,1016.4,0.00,0,0.0,////,0.0,0,0.0,////,19.3,0.0,12.3,3.513
2013/02/01,20:20:01,140,157,173,3.4,3.6,3.7,20.5,71.4,1016.5,0.00,0,0.0,////,0.0,0,0.0,////,19.3,0.0,12.3,3.511
2013/02/01,20:30:01,162,166,169,4.1,4.8,5.3,20.4,71.0,1016.6,0.00,0,0.0,////,0.0,0,0.0,////,19.3,0.0,12.3,3.511
2013/02/01,20:40:01,128,134,141,2.8,3.4,4.0,20.5,71.1,1016.6,0.00,0,0.0,////,0.0,0,0.0,////,19.3,0.0,12.3,3.514
2013/02/01,20:50:01,124,145,157,3.3,3.4,3.5,20.5,70.8,1016.6,0.00,0,0.0,////,0.0,0,0.0,////,19.4,0.0,12.3,3.513
2013/02/01,21:00:01,134,138,143,2.9,3.5,3.9,20.6,71.1,1016.9,0.00,0,0.0,////,0.0,0,0.0,////,19.4,0.0,12.3,3.513
2013/02/01,21:10:01,130,133,137,3.2,3.4,3.8,20.6,71.8,1016.8,0.00,0,0.0,////,0.0,0,0.0,////,19.4,0.0,12.3,3.513
2013/02/01,21:20:01,142,149,159,2.1,2.7,3.6,20.6,71.7,1016.8,0.00,0,0.0,////,0.0,0,0.0,////,19.6,0.0,12.3,3.514
2013/02/01,21:30:01,134,144,152,1.5,1.7,2.1,20.5,71.9,1016.7,0.00,0,0.0,////,0.0,0,0.0,////,19.3,0.0,12.3,3.513
2013/02/01,21:40:01,122,123,124,4.2,5.1,6.0,20.5,71.8,1016.6,0.00,0,0.0,////,0.0,0,0.0,////,19.3,0.0,12.3,3.513
2013/02/01,21:50:01,152,159,167,4.2,4.9,5.5,20.6,71.8,1016.6,0.00,0,0.0,////,0.0,0,0.0,////,19.1,0.0,12.3,3.513
2013/02/01,22:00:01,164,172,179,2.2,2.9,3.2,20.5,72.6,1016.7,0.00,0,0.0,////,0.0,0,0.0,////,19.3,0.0,12.3,3.511
2013/02/01,22:10:01,184,188,190,2.7,2.9,3.2,20.4,73.0,1016.7,0.00,0,0.0,////,0.0,0,0.0,////,19.1,0.0,12.3,3.513
2013/02/01,22:20:01,162,180,194,2.2,2.3,2.4,20.3,73.4,1016.6,0.00,0,0.0,////,0.0,0,0.0,////,19.1,0.0,12.3,3.513
2013/02/01,22:30:01,133,149,165,2.7,3.3,4.0,20.4,72.7,1016.6,0.00,0,0.0,////,0.0,0,0.0,////,19.1,0.0,12.3,3.513
2013/02/01,22:40:01,165,175,187,2.8,2.9,3.1,20.4,73.0,1016.5,0.00,0,0.0,////,0.0,0,0.0,////,19.1,0.0,12.3,3.513
2013/02/01,22:50:01,169,174,183,3.1,3.6,4.2,20.6,72.8,1016.5,0.00,0,0.0,////,0.0,0,0.0,////,19.3,0.0,12.3,3.513
2013/02/01,23:00:01,183,189,195,2.6,3.3,4.0,20.4,73.4,1016.4,0.00,0,0.0,////,0.0,0,0.0,////,19.1,0.0,12.2,3.513
2013/02/01,23:10:01,154,166,173,3.7,4.4,5.0,20.4,72.2,1016.4,0.00,0,0.0,////,0.0,0,0.0,////,19.3,0.0,12.3,3.513
2013/02/01,23:20:01,154,160,163,3.9,4.3,4.7,20.5,71.9,1016.3,0.00,0,0.0,////,0.0,0,0.0,////,19.3,0.0,12.3,3.511
2013/02/01,23:30:01,177,184,191,4.2,4.8,5.4,20.5,73.8,1016.2,0.00,0,0.0,////,0.0,0,0.0,////,19.3,0.0,12.3,3.509
2013/02/01,23:40:01,141,154,160,3.1,3.4,3.7,20.5,73.6,1016.1,0.00,0,0.0,////,0.0,0,0.0,////,19.3,0.0,12.3,3.513
2013/02/01,23:50:01,148,150,154,2.9,3.1,3.6,20.5,73.6,1016.1,0.00,0,0.0,////,0.0,0,0.0,////,19.1,0.0,12.3,3.513
2013/02/02,00:00:01,194,199,206,3.3,3.5,3.7,20.6,74.3,1016.1,0.00,0,0.0,////,0.0,0,0.0,////,19.4,0.0,12.3,3.511
2013/02/02,00:10:01,187,195,199,3.4,3.9,4.4,20.6,74.9,1016.0,0.00,0,0.0,////,0.0,0,0.0,////,19.6,0.0,12.3,3.513
2013/02/02,00:20:01,130,152,166,4.2,4.5,4.9,20.7,74.2,1015.9,0.00,0,0.0,////,0.0,0,0.0,////,19.6,0.0,12.3,3.513
2013/02/02,00:30:01,151,159,171,2.5,2.7,2.9,20.6,74.1,1015.9,0.00,0,0.0,////,0.0,0,0.0,////,19.4,0.0,12.2,3.511
2013/02/02,00:40:01,177,179,180,1.8,2.2,2.5,20.7,74.4,1015.8,0.00,0,0.0,////,0.0,0,0.0,////,19.4,0.0,12.3,3.511
2013/02/02,00:50:01,190,199,204,2.5,2.7,3.0,20.6,75.3,1015.8,0.00,0,0.0,////,0.0,0,0.0,////,19.4,0.0,12.3,3.513
2013/02/02,01:00:01,178,189,198,1.6,1.9,2.2,20.4,76.6,1015.7,0.00,0,0.0,////,0.0,0,0.0,////,18.9,0.0,12.3,3.513
2013/02/02,01:10:01,168,169,169,2.6,2.9,3.2,20.3,76.3,1015.7,0.00,0,0.0,////,0.0,0,0.0,////,18.9,0.0,12.3,3.511
2013/02/02,01:20:01,156,174,190,2.1,2.3,2.7,20.4,77.1,1015.8,0.00,0,0.0,////,0.0,0,0.0,////,19.1,0.0,12.3,3.513
2013/02/02,01:30:01,188,194,199,2.7,3.1,3.6,20.3,78.3,1015.8,0.00,0,0.0,////,0.0,0,0.0,////,18.9,0.0,12.3,3.514
2013/02/02,01:40:01,174,182,188,1.3,1.4,1.5,20.2,78.9,1015.7,0.00,0,0.0,////,0.0,0,0.0,////,18.7,0.0,12.3,3.511
2013/02/02,01:50:01,200,204,210,1.1,1.5,1.8,20.1,79.2,1015.8,0.00,0,0.0,////,0.0,0,0.0,////,19.1,0.0,12.3,3.513
2013/02/02,02:00:01,219,226,233,1.0,1.1,1.1,20.1,80.0,1015.8,0.00,0,0.0,////,0.0,0,0.0,////,18.7,0.0,12.3,3.513
2013/02/02,02:10:01,197,210,219,1.2,1.3,1.5,20.1,80.4,1015.8,0.00,0,0.0,////,0.0,0,0.0,////,18.7,0.0,12.3,3.511
2013/02/02,02:20:01,209,211,215,1.3,1.5,1.5,20.2,80.6,1015.7,0.00,0,0.0,////,0.0,0,0.0,////,18.7,0.0,12.3,3.513
2013/02/02,02:30:01,141,148,160,0.7,0.9,1.1,20.1,81.2,1015.6,0.00,0,0.0,////,0.0,0,0.0,////,18.7,0.0,12.3,3.513
2013/02/02,02:40:01,192,198,203,0.6,0.7,0.8,20.1,81.5,1015.6,0.00,0,0.0,////,0.0,0,0.0,////,18.7,0.0,12.3,3.513
2013/02/02,02:50:01,194,206,222,1.0,1.2,1.4,20.0,81.2,1015.6,0.00,0,0.0,////,0.0,0,0.0,////,18.7,0.0,12.2,3.513
2013/02/02,03:00:01,186,188,190,0.9,1.2,1.5,20.0,81.5,1015.6,0.00,0,0.0,////,0.0,0,0.0,////,18.6,0.0,12.3,3.513
2013/02/02,03:10:01,215,224,235,1.4,1.5,1.6,19.8,82.0,1015.5,0.00,0,0.0,////,0.0,0,0.0,////,18.6,0.0,12.3,3.511
2013/02/02,03:20:01,196,200,204,2.1,2.2,2.3,19.7,82.8,1015.5,0.00,0,0.0,////,0.0,0,0.0,////,18.2,0.0,12.3,3.513
2013/02/02,03:30:01,195,212,221,0.6,0.7,0.8,19.7,83.5,1015.4,0.00,0,0.0,////,0.0,0,0.0,////,18.2,0.0,12.3,3.514
2013/02/02,03:40:01,175,184,191,1.1,1.2,1.4,19.6,83.1,1015.4,0.00,0,0.0,////,0.0,0,0.0,////,18.2,0.0,12.3,3.514
2013/02/02,03:50:01,193,194,196,1.1,1.2,1.2,19.4,83.4,1015.3,0.00,0,0.0,////,0.0,0,0.0,////,17.9,0.0,12.3,3.514
2013/02/02,04:00:01,190,191,192,1.6,1.7,1.8,19.3,83.7,1015.3,0.00,0,0.0,////,0.0,0,0.0,////,17.9,0.0,12.3,3.513
2013/02/02,04:10:01,188,191,196,1.6,1.7,1.8,19.2,84.2,1015.2,0.00,0,0.0,////,0.0,0,0.0,////,17.7,0.0,12.3,3.511
2013/02/02,04:20:01,211,220,235,1.0,1.2,1.5,19.2,84.6,1015.1,0.00,0,0.0,////,0.0,0,0.0,////,17.7,0.0,12.3,3.516
2013/02/02,04:30:01,202,202,203,1.3,1.4,1.5,19.2,84.6,1015.0,0.00,0,0.0,////,0.0,0,0.0,////,17.7,0.0,12.4,3.513
2013/02/02,04:40:01,204,209,214,1.7,1.9,2.3,19.1,84.9,1015.0,0.00,0,0.0,////,0.0,0,0.0,////,17.5,0.0,12.3,3.515
2013/02/02,04:50:01,202,209,215,1.6,1.7,1.8,19.1,85.0,1014.9,0.00,0,0.0,////,0.0,0,0.0,////,17.4,0.0,12.3,3.511
2013/02/02,05:00:01,205,207,209,1.0,1.1,1.3,19.1,84.6,1015.2,0.00,0,0.0,////,0.0,0,0.0,////,17.5,0.0,12.3,3.513
2013/02/02,05:10:01,191,194,198,1.6,1.8,1.9,19.1,85.3,1015.2,0.00,0,0.0,////,0.0,0,0.0,////,17.7,0.0,12.3,3.513
2013/02/02,05:20:01,201,203,205,1.6,1.7,1.8,19.4,85.0,1015.2,0.00,0,0.0,////,0.0,0,0.0,////,18.4,0.0,12.3,3.511
2013/02/02,05:30:01,201,206,214,1.4,1.6,1.9,19.4,84.9,1015.3,0.00,0,0.0,////,0.0,0,0.0,////,18.1,0.0,12.3,3.513
2013/02/02,05:40:01,186,190,195,1.5,1.6,1.7,19.5,84.8,1015.4,0.00,0,0.0,////,0.0,0,0.0,////,17.7,0.0,12.3,3.513
2013/02/02,05:50:01,198,200,201,1.6,1.7,1.8,19.4,85.1,1015.3,0.00,0,0.0,////,0.0,0,0.0,////,17.9,0.0,12.3,3.513
2013/02/02,06:00:01,204,205,206,1.2,1.3,1.5,19.4,85.6,1015.4,0.00,0,0.0,////,0.0,0,0.0,////,17.7,0.0,12.3,3.515
2013/02/02,06:10:01,195,198,200,1.1,1.3,1.5,19.3,85.5,1015.5,0.00,0,0.0,////,0.0,0,0.0,////,17.9,0.0,12.3,3.513
2013/02/02,06:20:01,180,181,183,1.0,1.1,1.2,19.2,85.8,1015.5,0.00,0,0.0,////,0.0,0,0.0,////,17.7,0.0,12.3,3.513
2013/02/02,06:30:01,188,188,189,1.1,1.2,1.2,19.1,86.1,1015.6,0.00,0,0.0,////,0.0,0,0.0,////,17.4,0.0,12.3,3.511
2013/02/02,06:40:01,192,198,206,1.2,1.3,1.4,19.2,86.2,1015.6,0.00,0,0.0,////,0.0,0,0.0,////,17.5,0.0,12.3,3.513
2013/02/02,06:50:01,189,194,199,1.4,1.5,1.7,19.3,85.6,1015.7,0.00,0,0.0,////,0.0,0,0.0,////,17.9,0.0,12.3,3.511
2013/02/02,07:00:01,189,193,195,1.5,1.5,1.6,19.3,85.7,1015.8,0.00,0,0.0,////,0.0,0,0.0,////,17.9,0.0,12.3,3.513
2013/02/02,07:10:01,173,177,180,1.1,1.2,1.4,19.3,85.3,1015.9,0.00,0,0.0,////,0.0,0,0.0,////,17.9,0.0,12.3,3.513
2013/02/02,07:20:01,175,179,183,1.1,1.2,1.3,19.3,85.7,1015.9,0.00,0,0.0,////,0.0,0,0.0,////,17.9,0.0,12.3,3.513
2013/02/02,07:30:01,182,186,189,1.5,1.6,1.7,19.2,85.8,1015.9,0.00,0,0.0,////,0.0,0,0.0,////,17.9,0.0,12.3,3.511
2013/02/02,07:40:01,204,204,204,1.6,1.6,1.7,19.3,85.9,1016.1,0.00,0,0.0,////,0.0,0,0.0,////,18.1,0.0,12.3,3.513
2013/02/02,07:50:01,190,193,194,1.2,1.3,1.4,19.6,85.0,1016.2,0.00,0,0.0,////,0.0,0,0.0,////,18.7,0.0,12.3,3.511
2013/02/02,08:00:01,195,197,199,1.7,1.8,1.9,19.7,84.2,1016.1,0.00,0,0.0,////,0.0,0,0.0,////,19.3,0.0,12.3,3.513
2013/02/02,08:10:01,194,196,197,1.3,1.5,1.7,19.9,83.6,1016.2,0.00,0,0.0,////,0.0,0,0.0,////,20.1,0.0,12.3,3.513
2013/02/02,08:20:01,213,214,215,1.4,1.5,1.7,20.2,82.6,1016.3,0.00,0,0.0,////,0.0,0,0.0,////,20.8,0.0,12.3,3.511
2013/02/02,08:30:01,237,240,245,0.6,0.7,0.8,20.7,81.6,1016.4,0.00,0,0.0,////,0.0,0,0.0,////,21.7,0.0,12.3,3.513
2013/02/02,08:40:01,174,187,204,0.9,1.2,1.5,21.0,80.1,1016.6,0.00,0,0.0,////,0.0,0,0.0,////,22.2,0.0,12.3,3.515
2013/02/02,08:50:01,192,200,207,1.4,1.8,2.3,21.2,78.8,1016.6,0.00,0,0.0,////,0.0,0,0.0,////,22.7,0.0,12.3,3.513
2013/02/02,09:00:01,227,232,238,1.3,1.3,1.4,21.2,77.8,1016.7,0.00,0,0.0,////,0.0,0,0.0,////,22.5,0.0,12.3,3.514
2013/02/02,09:10:01,218,224,229,1.3,1.5,1.6,21.3,77.4,1016.8,0.00,0,0.0,////,0.0,0,0.0,////,23.1,0.0,12.3,3.513
2013/02/02,09:20:01,213,217,223,1.2,1.4,1.7,21.4,77.4,1017.0,0.00,0,0.0,////,0.0,0,0.0,////,22.9,0.0,12.3,3.511
2013/02/02,09:30:01,187,190,192,0.8,0.9,1.1,21.6,77.5,1017.1,0.00,0,0.0,////,0.0,0,0.0,////,23.6,0.0,12.3,3.513
2013/02/02,09:40:01,233,236,242,2.3,2.4,2.5,21.8,76.6,1017.2,0.00,0,0.0,////,0.0,0,0.0,////,23.9,0.0,12.3,3.513
2013/02/02,09:50:01,222,227,229,1.7,1.9,2.0,21.9,75.5,1017.3,0.00,0,0.0,////,0.0,0,0.0,////,24.4,0.0,12.3,3.511
2013/02/02,10:00:01,219,226,232,1.5,1.8,2.1,22.1,76.0,1017.5,0.00,0,0.0,////,0.0,0,0.0,////,24.1,0.0,12.3,3.513
2013/02/02,10:10:01,192,214,227,1.1,1.2,1.3,22.2,74.4,1017.5,0.00,0,0.0,////,0.0,0,0.0,////,25.6,0.0,12.3,3.513
2013/02/02,10:20:01,219,229,241,1.6,1.7,1.9,22.2,74.7,1017.5,0.00,0,0.0,////,0.0,0,0.0,////,24.6,0.0,12.3,3.513
2013/02/02,10:30:01,227,243,261,1.4,1.7,1.9,21.9,76.1,1017.5,0.00,0,0.0,////,0.0,0,0.0,////,23.4,0.0,12.3,3.513
2013/02/02,10:40:01,229,230,231,2.8,2.9,3.1,21.9,76.7,1017.4,0.00,0,0.0,////,0.0,0,0.0,////,23.1,0.0,12.3,3.513